Tracking 28052 objects as of 24-Sep-2023
HD Live streaming from Space Station
objects crossing your sky now

STARLINK-30245

Track STARLINK-30245 now!
10-day predictions
STARLINK-30245 is classified as:


NORAD ID: 57612
Int'l Code: 2023-119L
Perigee: 559.6 km
Apogee: 561.0 km
Inclination: 43.0 °
Period: 95.7 minutes
Semi major axis: 6931 km
RCS: Unknown
Launch date: August 11, 2023
Source: United States (US)
Launch site: AIR FORCE EASTERN TEST RANGE (AFETR)
Your satellite tracking list
Your tracking list is empty




NASA's NSSDC Master Catalog

Two Line Element Set (TLE):
1 57612U 23119L   23266.58334491  .00027773  00000-0  19600-2 0  9997
2 57612  42.9992 281.7870 0001024 275.9689 172.0983 15.04460299  7988
Source of the keplerian elements: AFSPC